DateTime,Index
2006090318,0.0
2006090400,0.0
2006090406,0.0
2006090412,0.0
2006090418,0.0
2006090500,0.0
2006090506,1225.0
2006090512,1225.0
2006090518,1600.0
2006090600,1600.0
2006090606,1600.0
2006090612,2025.0
2006090618,2025.0
2006090700,2025.0
2006090706,2025.0
2006090712,1600.0
2006090718,1600.0
2006090800,1600.0
2006090806,1600.0
2006090812,1600.0
2006090818,2025.0
2006090900,2500.0
2006090906,2500.0
2006090912,2500.0
2006090918,2500.0
2006091000,3600.0
2006091006,4900.0
2006091012,5625.0
2006091018,6400.0
2006091100,6400.0
2006091106,4900.0
2006091112,5625.0
2006091118,5625.0
2006091200,4900.0
2006091206,4225.0
2006091212,4225.0
2006091218,4225.0
2006091300,4900.0
2006091306,4900.0
2006091312,4900.0
2006091318,4900.0
2006091400,4225.0
2006091406,3600.0
2006091412,3025.0
2006091418,2500.0
2006091500,2025.0
2006091506,2025.0
2006091512,2025.0
2006091518,1600.0
2006091600,1600.0
2006091606,1600.0
2006091612,1600.0
2006091618,1600.0
2006091700,1600.0
2006091706,1600.0
2006091712,1600.0
2006091718,2025.0
2006091800,2500.0
2006091806,2500.0
2006091812,2500.0
2006091818,2500.0
2006091900,2500.0
